EW2082 Weather Reports


Display with metric or nautical units.
time (UTC)temp
F
wind
direction
speed
MPH
gust
MPH
rain 1hr
in
rain 24hr
in
rain mn
in
humidity
%
barometer
mb
20260506051003 57 176 0.0 0.0 0.00 0.00 0.00 80 1015.3
20260506045004 58 176 0.0 0.0 0.00 0.00 0.00 79 1015.0
20260506044004 58 176 0.0 0.0 0.00 0.00 0.00 80 1014.9
20260506043004 58 176 0.0 0.0 0.00 0.00 0.00 79 1014.9
20260506042004 58 176 0.0 0.0 0.00 0.00 0.00 77 1014.9
20260506041004 59 176 0.0 0.0 0.00 0.00 0.00 77 1014.6
20260506040004 60 176 0.0 0.0 0.00 0.00 0.00 76 1014.5
20260506035004 60 176 0.0 0.0 0.00 0.00 0.00 76 1014.3
20260506034004 60 176 0.0 0.0 0.00 0.00 0.00 74 1014.1
20260506033004 61 176 0.0 0.0 0.00 0.00 0.00 75 1014.0
20260506032003 61 176 0.0 0.0 0.00 0.00 0.00 74 1014.0
20260506031005 62 176 0.0 1.0 0.00 0.00 0.00 73 1013.9
20260506030005 62 161 0.0 2.0 0.00 0.00 0.00 72 1013.7
20260506025005 63 186 0.0 1.0 0.00 0.00 0.00 70 1013.6
20260506024005 64 211 0.0 1.0 0.00 0.00 0.00 67 1013.4
20260506023005 64 173 0.0 0.0 0.00 0.00 0.00 66 1013.4
20260506022004 65 231 0.0 1.0 0.00 0.00 0.00 64 1013.4
20260506021004 65 245 0.0 2.0 0.00 0.00 0.00 59 1013.2
20260506020005 66 220 0.0 3.0 0.00 0.00 0.00 56 1013.1
20260506015005 66 222 0.0 0.0 0.00 0.00 0.00 51 1013.1
20260506014005 66 5 0.0 3.0 0.00 0.00 0.00 49 1013.1
20260506013005 68 341 0.0 4.0 0.00 0.00 0.00 49 1013.0
20260506012005 69 14 0.0 3.0 0.00 0.00 0.00 49 1012.9
20260506011004 70 44 0.0 3.0 0.00 0.00 0.00 50 1013.0
20260506010006 71 333 0.0 2.0 0.00 0.00 0.00 53 1013.0
20260506005004 71 14 0.0 1.0 0.00 0.00 0.00 54 1013.1
20260506004004 70 34 0.0 2.0 0.00 0.00 0.00 55 1013.0
20260506002005 72 167 3.0 4.0 0.00 0.00 0.00 52 1013.0
20260506000005 73 358 0.0 2.0 0.00 0.00 0.00 52 1013.0
20260505235004 73 90 0.0 1.0 0.00 0.00 0.00 52 1013.0
20260505234005 72 329 4.0 4.0 0.00 0.00 0.00 51 1013.0
20260505233004 73 359 0.0 2.0 0.00 0.00 0.00 50 1013.0
20260505232005 71 197 0.0 2.0 0.00 0.00 0.00 53 1013.0
20260505231004 72 28 0.0 2.0 0.00 0.00 0.00 47 1013.0
20260505230006 73 250 0.0 4.0 0.00 0.00 0.00 45 1013.0
20260505225004 75 35 0.0 3.0 0.00 0.00 0.00 42 1012.9
20260505222005 75 271 0.0 4.0 0.00 0.00 0.00 44 1013.3
20260505221004 73 6 0.0 6.0 0.00 0.00 0.00 47 1013.2
20260505220006 72 327 0.0 6.0 0.00 0.00 0.00 49 1013.3
20260505215004 72 15 2.0 4.0 0.00 0.00 0.00 49 1013.4
20260505214005 71 27 3.0 3.0 0.00 0.00 0.00 50 1013.5
20260505212005 72 280 3.0 6.0 0.00 0.00 0.00 48 1013.5
20260505211004 72 33 2.0 4.0 0.00 0.00 0.00 47 1013.5
20260505210006 72 9 2.0 5.0 0.00 0.00 0.00 47 1013.6
20260505205004 73 128 0.0 5.0 0.00 0.00 0.00 47 1013.5
20260505204004 73 30 0.0 7.0 0.00 0.00 0.00 46 1013.6
20260505203003 73 41 0.0 3.0 0.00 0.00 0.00 49 1013.5
20260505202004 72 304 2.0 3.0 0.00 0.00 0.00 48 1013.4
20260505201005 72 41 0.0 5.0 0.00 0.00 0.00 53 1013.6
20260505195004 71 281 0.0 5.0 0.00 0.00 0.00 53 1013.6
20260505194006 71 9 0.0 4.0 0.00 0.00 0.00 55 1013.8
20260505193005 70 34 0.0 6.0 0.00 0.00 0.00 55 1013.9
20260505192004 70 94 0.0 3.0 0.00 0.00 0.00 55 1013.9
20260505191003 69 40 0.0 5.0 0.00 0.00 0.00 57 1013.9
20260505190004 70 23 1.0 6.0 0.00 0.00 0.00 52 1014.0
20260505185004 71 259 0.0 3.0 0.00 0.00 0.00 54 1014.0
20260505184003 71 30 0.0 2.0 0.00 0.00 0.00 51 1014.1
20260505183004 70 281 1.0 3.0 0.00 0.00 0.00 54 1014.1
20260505182010 70 195 5.0 5.0 0.00 0.00 0.00 53 1014.0
20260505180004 70 39 1.0 3.0 0.00 0.00 0.00 57 1013.9
20260505175003 68 107 0.0 2.0 0.00 0.00 0.00 60 1013.8
20260505174003 66 27 2.0 3.0 0.00 0.00 0.00 63 1013.8
20260505173003 66 155 0.0 4.0 0.00 0.00 0.00 64 1013.7
20260505172003 68 28 2.0 4.0 0.00 0.00 0.00 61 1013.5
20260505171003 68 35 0.0 3.0 0.00 0.00 0.00 60 1013.4
20260505170004 67 47 0.0 3.0 0.00 0.00 0.00 62 1013.4
20260505165004 67 356 0.0 3.0 0.00 0.00 0.00 60 1013.3
20260505164004 66 10 1.0 6.0 0.00 0.00 0.00 63 1013.3
20260505163004 66 30 0.0 3.0 0.00 0.00 0.00 63 1013.1
20260505162004 67 282 1.0 4.0 0.00 0.00 0.00 63 1012.9
20260505161004 67 6 2.0 3.0 0.00 0.00 0.00 64 1012.7
20260505153003 65 254 0.0 2.0 0.00 0.00 0.00 69 1012.7
20260505152003 64 281 0.0 2.0 0.00 0.00 0.00 71 1012.7
20260505151003 63 261 0.0 3.0 0.00 0.00 0.00 73 1012.7
20260505125004 57 138 0.0 1.0 0.00 0.00 0.00 84 1012.2
20260505123004 57 64 0.0 1.0 0.00 0.00 0.00 84 1012.1
20260505121004 57 349 0.0 1.0 0.00 0.00 0.00 83 1012.0
20260505120005 57 349 0.0 2.0 0.00 0.00 0.00 82 1011.9
20260505115004 57 2 0.0 2.0 0.00 0.00 0.00 83 1012.0
20260505113004 58 331 0.0 0.0 0.00 0.00 0.00 82 1012.0
20260505112004 58 335 0.0 1.0 0.00 0.00 0.00 82 1012.1
20260505102004 58 264 0.0 0.0 0.00 0.00 0.00 85 1012.1
20260505101004 58 257 0.0 3.0 0.00 0.00 0.00 85 1012.2
20260505100004 58 30 0.0 1.0 0.00 0.00 0.00 86 1012.1
20260505095004 58 226 0.0 3.0 0.00 0.00 0.00 90 1012.2
20260505094004 58 188 0.0 0.0 0.00 0.00 0.00 90 1012.3
20260505093004 58 188 0.0 0.0 0.00 0.00 0.00 90 1012.5
20260505092004 58 188 0.0 1.0 0.00 0.00 0.00 90 1012.7
20260505091004 59 210 0.0 1.0 0.00 0.00 0.00 89 1012.8
20260505090005 59 180 0.0 0.0 0.00 0.00 0.00 88 1012.8
20260505085004 59 198 0.0 2.0 0.00 0.00 0.00 87 1012.9
20260505084004 59 212 0.0 0.0 0.00 0.00 0.00 87 1013.0
20260505083005 59 212 0.0 1.0 0.00 0.00 0.00 86 1013.0
20260505082004 59 272 0.0 0.0 0.00 0.00 0.00 86 1013.0
20260505081005 59 272 0.0 1.0 0.00 0.00 0.00 86 1013.1
20260505080004 59 272 0.0 0.0 0.00 0.00 0.00 86 1013.0
20260505072005 60 272 0.0 0.0 0.00 0.00 0.00 83 1013.5
20260505071004 60 272 0.0 1.0 0.00 0.00 0.00 82 1013.3
20260505070006 60 272 0.0 1.0 0.00 0.00 0.00 82 1013.3
20260505065004 60 11 0.0 4.0 0.00 0.00 0.00 82 1013.3
20260505064003 60 292 0.0 2.0 0.00 0.00 0.00 82 1013.3
20260505062004 60 6 0.0 0.0 0.00 0.00 0.00 84 1013.4
20260505061004 60 6 0.0 1.0 0.00 0.00 0.00 83 1013.4
20260505060005 60 307 0.0 0.0 0.00 0.00 0.00 83 1013.3
20260505055004 60 320 0.0 1.0 0.00 0.00 0.00 81 1013.4